Regional Weather Roundup
Issued by NWS

Home | Current Version | Previous Version | Text Only | Print | Product List | Glossary Off
Versions: 1 2 3 4 5 6 7 8 9 10 11 12 13 14 15 16 17 18 19 20 21 22 23 24 25 26 27 28 29 30 31 32 33 34 35 36 37 38 39 40 41 42 43 44 45 46 47 48 49 50

000
ASUS43 KLOT 110808
RWRIL

ILLINOIS REGIONAL WEATHER ROUNDUP
NATIONAL WEATHER SERVICE CHICAGO/ROMEOVILLE IL
200 AM CST THU FEB 11 2016

NOTE: "FAIR" INDICATES FEW OR NO CLOUDS BELOW 12,000 FEET WITH NO
SIGNIFICANT WEATHER AND/OR OBSTRUCTIONS TO VISIBILITY.

* THESE STATIONS ARE NOT UNDER NWS QUALITY CONTROL. THEY ALSO MAY NOT
  REPORT WEATHER SUCH AS PRECIPITATION OR FOG.

ILZ001-002-007-009-015-016-024-110900-
NORTHWEST ILLINOIS

CITY           SKY/WX    TMP DP  RH WIND       PRES   REMARKS
MOLINE         PTCLDY    12   2  64 N3        30.22S
STERLING*      CLOUDY    14   0  52 N8        30.19S WCI   3
SAVANNA*       CLOUDY    13   0  56 N6        30.24R WCI   4
$$

ILZ003-004-008-010-011-017-018-110900-
NORTH CENTRAL ILLINOIS

CITY           SKY/WX    TMP DP  RH WIND       PRES   REMARKS
ROCKFORD       PTCLDY     9   0  67 N7        30.22R WCI  -2
FREEPORT*      MOCLDY     9   0  67 N6        30.22R WCI  -1
ROCHELLE*      CLOUDY    11   3  70 NW7       30.21R WCI   0
DE KALB*       PTCLDY    10   3  75 NW3       30.18R
$$

ILZ005-006-012>014-019>023-110900-
NORTHEAST ILLINOIS

CITY           SKY/WX    TMP DP  RH WIND       PRES   REMARKS
CHICAGO-OHARE  MOCLDY    11   0  61 NW10      30.17S WCI  -3
CHICAGO-MIDWAY MOCLDY    13  -1  54 NW10      30.18S WCI   0
AURORA         CLEAR     10   4  76 NW7       30.20R WCI  -1
LANSING*       CLEAR     12   0  56 N8        30.18R WCI   1
JOLIET*        CLEAR     12   4  69 CALM      30.20R
WAUKEGAN       CLEAR      7  -1  70 NW7       30.17R WCI  -5
DUPAGE AIRPORT CLEAR     10  -1  61 N7        30.17S WCI  -1
KANKAKEE*      PTCLDY    13   2  62 NW7       30.20R WCI   2
WHEELING       CLEAR      9  -1  64 NW8       30.19S WCI  -3
MORRIS*        PTCLDY    11   4  74 NW6       30.18R WCI   1
ROMEOVILLE*    CLEAR     10   2  72 NW6       30.19R WCI   0
NORTHERLY ISL    N/A     14   2  58 W6          N/A  WCI   5
$$

LMZ740>746-110900-
SOUTHERN LAKE MICHIGAN

STATION/POSITION SKY/WX   TEMP    WIND        PRES    VSBY  WAVE
                          AIR SEA DIR/SP/G                  HT/PER
                          (F)     (DEG/KT/KT) (MB)    (MI)  (FT/S)
HARRISON CRIB              15     320/ 15/ 17   N/A
BURNHAM HARBOR             15     270/  5/ 10   N/A
CALUMET HARBOR             13     300/  8/ 12 1021.0
BURNS HARBOR               17     310/ 14/ 21 1021.3S
MICHIGAN CITY              17     280/ 14/ 16   N/A
$$

ILZ025>027-034>036-040-047-049-050-058-095>099-110900-
WEST-CENTRAL ILLINOIS

CITY           SKY/WX    TMP DP  RH WIND       PRES   REMARKS
QUINCY         CLOUDY    19  13  77 N12       30.19R WCI   7
GALESBURG*     CLOUDY    10   3  76 N5        30.21R WCI   1
MACOMB*        CLOUDY    15   8  71 N7        30.24R WCI   6
JACKSONVILLE*  FLURRIES  22  17  81 N5        30.20R WCI  16
PITTSFIELD*    CLOUDY    20  17  88 N6        30.20R WCI  12
$$

ILZ028>032-037-038-041>044-048-051>054-059>061-110900-
CENTRAL ILLINOIS

CITY           SKY/WX    TMP DP  RH WIND       PRES   REMARKS
PONTIAC        CLOUDY    15   7  71 N6        30.20R WCI   6
BLOOMINGTON    MOCLDY    12   5  73 N7        30.19R WCI   1
DECATUR        CLOUDY    18   7  62 N6        30.18R WCI  10
PEORIA         CLOUDY    14   4  64 VRB3      30.22R
LACON*         CLOUDY    12   4  71 N3        30.21S
LINCOLN*       CLOUDY    18   9  69 N7        30.20R WCI   8
SPRINGFIELD    CLOUDY    20  12  71 N9        30.21R WCI   9
TAYLORVILLE    FLURRIES  19  14  79 N9        30.19S WCI   9
$$

ILZ033-039-045-046-055>057-062-063-110900-
EAST-CENTRAL ILLINOIS

CITY           SKY/WX    TMP DP  RH WIND       PRES   REMARKS
CHAMPAIGN      CLOUDY    15   6  67 N8        30.17R WCI   4
RANTOUL*       CLOUDY    16   8  70 N5        30.18R WCI   9
MATTOON        CLOUDY    18   9  68 N7        30.17R WCI   9
PARIS*         CLOUDY    14   9  79 CALM      30.18F
$$

ILZ079-100>102-110900-
SOUTHWEST ILLINOIS

CITY           SKY/WX    TMP DP  RH WIND       PRES   REMARKS
ALTON          CLOUDY    21  18  87 CALM      30.18R
BELLEVILLE     PTCLDY    22  21  96 NE7       30.16S WCI  13
CAHOKIA*       CLOUDY    23  18  81 NE7       30.17R WCI  15
SPARTA*        CLOUDY    19  17  92 CALM      30.17R
$$

ILZ064>066-069>071-074>076-080>082-084>086-088>090-092>094-110900-
SOUTH-CENTRAL ILLINOIS

CITY           SKY/WX    TMP DP  RH WIND       PRES   REMARKS
CARBONDALE     CLOUDY    21  17  84 E3        30.16S
CAIRO*         CLOUDY    26  23  89 E6        30.14F WCI  19
EFFINGHAM*     FLURRIES  21  18  86 N3        30.20S
MARION         CLOUDY    23  19  86 CALM      30.17R
MT. VERNON     CLOUDY    21  16  79 NE7       30.17S WCI  13
CENTRALIA*     CLOUDY    22  20  92 CALM      30.16S
SALEM*         FLURRIES  22  18  85 CALM      30.17S
METROPOLIS*    CLOUDY    26  23  89 NE3       30.15F
$$

ILZ067-068-072-073-078-083-087-091-110900-
SOUTHEAST ILLINOIS

CITY           SKY/WX    TMP DP  RH WIND       PRES   REMARKS
LAWRENCEVILLE  CLOUDY    21  15  78 N5        30.20S WCI  15
FLORA*         CLOUDY    22  19  85 N3        30.18F
FAIRFIELD*     FLURRIES  21  19  89 NE6       30.17S WCI  14
HARRISBURG*    CLOUDY    23  20  90 NE5       30.18R WCI  17
ROBINSON*      CLOUDY    19  14  79 N3        30.21S
CARMI*         CLOUDY    22  19  90 NE3       30.18S
$$

ABBREVIATIONS USED IN REMARKS
   TC - TEMPERATURE IN CELSIUS
  WCI - WIND CHILL INDEX
   HX - HEAT INDEX
  VSB - VISIBILITY
$$




USA.gov is the U.S. government's official web portal to all federal, state and local government web resources and services.